User: anonymous   Login
Location: Arrodets-la-Barthe
(43.0306°N, 0.2829°E)
Time: 23:09:13
(UTC+00:00)
Language:

TIGRISAT - Orbit

View from above orbital plane
View from above orbital plane
View from above satellite
View from above satellite

Ground track
Ground track

The orbit data is extracted from the following two-line orbital elements,

1 40043U 14033AK  23090.44445947  .00003788  00000-0  54160-3 0  9992
2 40043  97.6616 269.4439 0057020 306.7121  52.8859 14.76101365472249
Epoch (UTC): 31 March 2023 10:40:01
Eccentricity: 0.0057020
inclination: 97.6616°
perigee height: 601 km
apogee height: 681 km
right ascension of ascending node: 269.4439°
argument of perigee: 306.7121°
revolutions per day: 14.76101365
mean anomaly at epoch: 52.8859°
orbit number at epoch: 47224

The dashed part of the orbit path shows where the satellite is in the earth's shadow,  

DLR